Time,TemperatureF,DewpointF,PressureIn,WindDirection,WindDirectionDegrees,WindSpeedMPH,WindSpeedGustMPH,Humidity,HourlyPrecipIn,Conditions,Clouds,dailyrainin,SoftwareType,DateUTC
2013-01-07 00:02:00,67.0,66.0,30.10,WNW,283,1.0,5.0,95,0.00,,,0.50,,2013-01-07 10:02:00,
2013-01-07 00:12:00,67.0,66.0,30.10,WNW,283,1.0,5.0,95,0.00,,,0.50,,2013-01-07 10:12:00,
2013-01-07 00:22:00,67.0,66.0,30.09,WSW,240,1.0,4.0,95,0.00,,,0.40,,2013-01-07 10:22:00,
2013-01-07 00:32:00,67.0,66.0,30.09,West,266,1.0,4.0,95,0.00,,,0.40,,2013-01-07 10:32:00,
2013-01-07 00:42:00,67.0,66.0,30.09,West,266,1.0,4.0,95,0.00,,,0.40,,2013-01-07 10:42:00,
2013-01-07 00:52:00,67.0,66.0,30.09,WNW,293,2.0,5.0,95,0.05,,,0.45,,2013-01-07 10:52:00,
2013-01-07 01:02:00,67.0,66.0,30.09,NW,310,0.0,3.0,95,0.09,,,0.49,,2013-01-07 11:02:00,
2013-01-07 01:12:00,67.0,66.0,30.09,NW,310,0.0,3.0,95,0.09,,,0.49,,2013-01-07 11:12:00,
2013-01-07 01:22:00,67.0,66.0,30.09,WNW,290,0.0,2.0,95,0.10,,,0.33,,2013-01-07 11:22:00,
2013-01-07 01:32:00,67.0,66.0,30.08,SW,236,1.0,4.0,95,0.25,,,0.48,,2013-01-07 11:32:00,
2013-01-07 01:42:00,67.0,66.0,30.08,SW,236,1.0,4.0,95,0.25,,,0.48,,2013-01-07 11:42:00,
2013-01-07 01:53:00,67.0,66.0,30.08,WSW,248,1.0,3.0,95,0.19,,,0.49,,2013-01-07 11:53:00,
2013-01-07 02:02:00,67.0,66.0,30.08,WNW,303,1.0,5.0,96,0.17,,,0.49,,2013-01-07 12:02:00,
2013-01-07 02:12:00,67.0,66.0,30.08,WNW,303,1.0,5.0,96,0.17,,,0.49,,2013-01-07 12:12:00,
2013-01-07 02:22:00,67.0,66.0,30.06,NW,306,3.0,6.0,96,0.16,,,0.46,,2013-01-07 12:22:00,
2013-01-07 02:32:00,67.0,66.0,30.06,WSW,237,2.0,4.0,96,0.06,,,0.50,,2013-01-07 12:32:00,
2013-01-07 02:42:00,67.0,66.0,30.06,WSW,237,2.0,4.0,96,0.06,,,0.50,,2013-01-07 12:42:00,
2013-01-07 02:53:00,67.0,66.0,30.07,NNE,13,4.0,5.0,96,0.26,,,0.71,,2013-01-07 12:53:00,
2013-01-07 03:02:00,66.0,65.0,30.07,WSW,237,5.0,10.0,96,0.29,,,0.74,,2013-01-07 13:02:00,
2013-01-07 03:12:00,66.0,65.0,30.07,WSW,237,5.0,10.0,96,0.29,,,0.74,,2013-01-07 13:12:00,
2013-01-07 03:22:00,66.0,65.0,30.05,WNW,291,3.0,6.0,96,0.29,,,0.67,,2013-01-07 13:22:00,
2013-01-07 03:32:00,66.0,65.0,30.05,West,269,2.0,8.0,96,0.25,,,0.68,,2013-01-07 13:32:00,
2013-01-07 03:42:00,66.0,65.0,30.05,West,269,2.0,8.0,96,0.25,,,0.68,,2013-01-07 13:42:00,
2013-01-07 03:53:00,66.0,65.0,30.05,WNW,297,4.0,7.0,96,0.08,,,0.71,,2013-01-07 13:53:00,
2013-01-07 04:02:00,66.0,65.0,30.05,WNW,293,2.0,6.0,96,0.06,,,0.72,,2013-01-07 14:02:00,
2013-01-07 04:12:00,66.0,65.0,30.05,WNW,293,2.0,6.0,96,0.06,,,0.72,,2013-01-07 14:12:00,
2013-01-07 04:22:00,66.0,65.0,30.04,West,279,2.0,6.0,96,0.10,,,0.75,,2013-01-07 14:22:00,
2013-01-07 04:32:00,66.0,65.0,30.05,NNE,15,4.0,5.0,96,0.13,,,0.79,,2013-01-07 14:32:00,
2013-01-07 04:42:00,66.0,65.0,30.05,NNE,15,4.0,5.0,96,0.13,,,0.79,,2013-01-07 14:42:00,
2013-01-07 04:53:00,66.0,65.0,30.05,WNW,282,1.0,6.0,96,0.11,,,0.80,,2013-01-07 14:53:00,
2013-01-07 05:02:00,66.0,65.0,30.04,WNW,303,2.0,6.0,96,0.10,,,0.80,,2013-01-07 15:02:00,
2013-01-07 05:12:00,66.0,65.0,30.04,WNW,303,2.0,6.0,96,0.10,,,0.80,,2013-01-07 15:12:00,
2013-01-07 05:22:00,68.0,67.0,30.05,East,100,6.0,12.0,96,0.06,,,0.81,,2013-01-07 15:22:00,
2013-01-07 05:33:00,68.0,67.0,30.05,SSW,208,2.0,7.0,95,0.02,,,0.81,,2013-01-07 15:33:00,
2013-01-07 05:42:00,68.0,67.0,30.05,SSW,208,2.0,7.0,95,0.02,,,0.81,,2013-01-07 15:42:00,
2013-01-07 05:53:00,67.0,66.0,30.05,WSW,257,1.0,4.0,95,0.01,,,0.81,,2013-01-07 15:53:00,
2013-01-07 06:02:00,66.0,65.0,30.05,West,278,3.0,4.0,95,0.01,,,0.81,,2013-01-07 16:02:00,
2013-01-07 06:12:00,66.0,65.0,30.05,West,278,3.0,4.0,95,0.01,,,0.81,,2013-01-07 16:12:00,
2013-01-07 06:22:00,66.0,65.0,30.05,WSW,246,1.0,7.0,95,0.00,,,0.81,,2013-01-07 16:22:00,
2013-01-07 06:32:00,66.0,65.0,30.06,WNW,290,2.0,7.0,95,0.00,,,0.81,,2013-01-07 16:32:00,
2013-01-07 06:42:00,66.0,65.0,30.06,WNW,290,2.0,7.0,95,0.00,,,0.81,,2013-01-07 16:42:00,
2013-01-07 06:53:00,66.0,65.0,30.07,WNW,290,2.0,6.0,96,0.00,,,0.81,,2013-01-07 16:53:00,
2013-01-07 07:02:00,66.0,65.0,30.07,WSW,242,0.0,3.0,96,0.00,,,0.81,,2013-01-07 17:02:00,
2013-01-07 07:12:00,66.0,65.0,30.07,WSW,242,0.0,3.0,96,0.00,,,0.81,,2013-01-07 17:12:00,
2013-01-07 07:22:00,66.0,65.0,30.08,WSW,252,0.0,5.0,96,0.00,,,0.81,,2013-01-07 17:22:00,
2013-01-07 07:32:00,66.0,65.0,30.08,WSW,257,2.0,5.0,96,0.00,,,0.81,,2013-01-07 17:32:00,
2013-01-07 07:42:00,66.0,65.0,30.08,WSW,257,2.0,5.0,96,0.00,,,0.81,,2013-01-07 17:42:00,
2013-01-07 07:53:00,67.0,66.0,30.09,SSW,213,2.0,7.0,96,0.00,,,0.81,,2013-01-07 17:53:00,
2013-01-07 08:02:00,67.0,66.0,30.09,West,271,4.0,7.0,96,0.00,,,0.81,,2013-01-07 18:02:00,
2013-01-07 08:12:00,67.0,66.0,30.09,West,271,4.0,7.0,96,0.00,,,0.81,,2013-01-07 18:12:00,
2013-01-07 08:23:00,68.0,67.0,30.10,WSW,249,0.0,3.0,96,0.00,,,0.81,,2013-01-07 18:23:00,
2013-01-07 08:32:00,69.0,68.0,30.11,WNW,300,3.0,5.0,95,0.00,,,0.81,,2013-01-07 18:32:00,
2013-01-07 08:42:00,69.0,68.0,30.11,WNW,300,3.0,5.0,95,0.00,,,0.81,,2013-01-07 18:42:00,
2013-01-07 08:53:00,69.0,67.0,30.11,WNW,292,4.0,5.0,94,0.00,,,0.81,,2013-01-07 18:53:00,
2013-01-07 09:02:00,70.0,68.0,30.11,WNW,296,2.0,5.0,94,0.00,,,0.81,,2013-01-07 19:02:00,
2013-01-07 09:12:00,70.0,68.0,30.11,WNW,296,2.0,5.0,94,0.00,,,0.81,,2013-01-07 19:12:00,
2013-01-07 09:22:00,71.0,69.0,30.11,WNW,286,3.0,5.0,93,0.00,,,0.81,,2013-01-07 19:22:00,
2013-01-07 09:32:00,72.0,70.0,30.11,WNW,284,1.0,5.0,92,0.00,,,0.81,,2013-01-07 19:32:00,
2013-01-07 09:42:00,72.0,70.0,30.11,WNW,284,1.0,5.0,92,0.00,,,0.81,,2013-01-07 19:42:00,
2013-01-07 09:53:00,73.0,70.0,30.11,ENE,57,4.0,7.0,90,0.00,,,0.81,,2013-01-07 19:53:00,
2013-01-07 10:02:00,73.0,69.0,30.10,North,3,3.0,6.0,87,0.00,,,0.81,,2013-01-07 20:02:00,
2013-01-07 10:12:00,73.0,69.0,30.10,North,3,3.0,6.0,87,0.00,,,0.81,,2013-01-07 20:12:00,
2013-01-07 10:22:00,75.0,71.0,30.10,NNE,22,1.0,5.0,86,0.00,,,0.81,,2013-01-07 20:22:00,
2013-01-07 10:32:00,75.0,70.0,30.10,WNW,299,2.0,6.0,84,0.00,,,0.81,,2013-01-07 20:32:00,
2013-01-07 10:42:00,75.0,70.0,30.10,WNW,299,2.0,6.0,84,0.00,,,0.81,,2013-01-07 20:42:00,
2013-01-07 10:53:00,75.0,69.0,30.09,NNE,20,1.0,6.0,83,0.00,,,0.81,,2013-01-07 20:53:00,
2013-01-07 11:02:00,76.0,69.0,30.09,NNW,335,4.0,7.0,80,0.00,,,0.81,,2013-01-07 21:02:00,
2013-01-07 11:12:00,76.0,69.0,30.09,NNW,335,4.0,7.0,80,0.00,,,0.81,,2013-01-07 21:12:00,
2013-01-07 11:22:00,76.0,69.0,30.08,NNE,22,2.0,7.0,79,0.00,,,0.79,,2013-01-07 21:22:00,
2013-01-07 11:32:00,75.0,68.0,30.08,NE,52,4.0,8.0,78,0.00,,,0.79,,2013-01-07 21:32:00,
2013-01-07 11:42:00,75.0,68.0,30.08,NE,52,4.0,8.0,78,0.00,,,0.79,,2013-01-07 21:42:00,
2013-01-07 11:53:00,75.0,67.0,30.07,NE,45,4.0,8.0,77,0.00,,,0.79,,2013-01-07 21:53:00,
2013-01-07 12:02:00,75.0,67.0,30.07,NE,45,3.0,8.0,77,0.00,,,0.79,,2013-01-07 22:02:00,
2013-01-07 12:12:00,75.0,67.0,30.07,NE,45,3.0,8.0,77,0.00,,,0.79,,2013-01-07 22:12:00,
2013-01-07 12:22:00,76.0,68.0,30.06,ENE,71,3.0,7.0,77,0.00,,,0.79,,2013-01-07 22:22:00,
2013-01-07 12:33:00,76.0,68.0,30.05,NNE,13,3.0,6.0,76,0.00,,,0.79,,2013-01-07 22:33:00,
2013-01-07 12:42:00,76.0,68.0,30.05,NNE,13,3.0,6.0,76,0.00,,,0.79,,2013-01-07 22:42:00,
2013-01-07 12:53:00,75.0,68.0,30.04,NE,43,5.0,8.0,78,0.00,,,0.79,,2013-01-07 22:53:00,
2013-01-07 13:02:00,74.0,67.0,30.03,NE,45,4.0,8.0,78,0.00,,,0.79,,2013-01-07 23:02:00,
2013-01-07 13:12:00,74.0,67.0,30.03,NE,45,4.0,8.0,78,0.00,,,0.79,,2013-01-07 23:12:00,
2013-01-07 13:22:00,74.0,66.0,30.01,NE,52,6.0,10.0,77,0.00,,,0.79,,2013-01-07 23:22:00,
2013-01-07 13:32:00,75.0,68.0,30.00,NNE,32,6.0,9.0,79,0.00,,,0.79,,2013-01-07 23:32:00,
2013-01-07 13:42:00,75.0,68.0,30.00,NNE,32,6.0,9.0,79,0.00,,,0.79,,2013-01-07 23:42:00,
2013-01-07 13:53:00,75.0,68.0,30.00,NNE,32,6.0,10.0,78,0.00,,,0.79,,2013-01-07 23:53:00,
2013-01-07 14:02:00,74.0,67.0,30.00,NE,54,7.0,11.0,78,0.00,,,0.79,,2013-01-08 00:02:00,
2013-01-07 14:12:00,74.0,67.0,30.00,NE,54,7.0,11.0,78,0.00,,,0.79,,2013-01-08 00:12:00,
2013-01-07 14:22:00,75.0,68.0,30.00,NE,49,8.0,12.0,78,0.00,,,0.78,,2013-01-08 00:22:00,
2013-01-07 14:32:00,74.0,67.0,29.99,NE,49,8.0,12.0,78,0.00,,,0.78,,2013-01-08 00:32:00,
2013-01-07 14:42:00,74.0,67.0,29.99,NE,49,8.0,12.0,78,0.00,,,0.78,,2013-01-08 00:42:00,
2013-01-07 14:52:00,73.0,66.0,29.99,ENE,58,9.0,14.0,78,0.00,,,0.78,,2013-01-08 00:52:00,
2013-01-07 15:02:00,73.0,66.0,29.99,NE,38,9.0,15.0,78,0.00,,,0.78,,2013-01-08 01:02:00,
2013-01-07 15:11:00,73.0,66.0,29.99,NE,38,9.0,15.0,78,0.00,,,0.78,,2013-01-08 01:11:00,
2013-01-07 15:22:00,74.0,67.0,29.99,ENE,57,9.0,14.0,79,0.00,,,0.77,,2013-01-08 01:22:00,
2013-01-07 15:32:00,74.0,67.0,29.99,NE,45,9.0,15.0,79,0.00,,,0.77,,2013-01-08 01:32:00,
2013-01-07 15:42:00,74.0,67.0,29.99,NE,45,9.0,15.0,79,0.00,,,0.77,,2013-01-08 01:42:00,
2013-01-07 15:52:00,74.0,67.0,29.99,ENE,71,7.0,14.0,79,0.00,,,0.77,,2013-01-08 01:52:00,
2013-01-07 16:02:00,74.0,67.0,29.99,NNE,14,8.0,12.0,78,0.00,,,0.77,,2013-01-08 02:02:00,
2013-01-07 16:12:00,74.0,67.0,29.99,NNE,14,8.0,12.0,78,0.00,,,0.77,,2013-01-08 02:12:00,
2013-01-07 16:22:00,74.0,66.0,29.99,ENE,57,7.0,10.0,77,0.00,,,0.77,,2013-01-08 02:22:00,
2013-01-07 16:32:00,74.0,67.0,29.99,NE,47,7.0,12.0,78,0.00,,,0.77,,2013-01-08 02:32:00,
2013-01-07 16:42:00,74.0,67.0,29.99,NE,47,7.0,12.0,78,0.00,,,0.77,,2013-01-08 02:42:00,
2013-01-07 16:53:00,74.0,66.0,30.00,NE,49,8.0,12.0,77,0.00,,,0.77,,2013-01-08 02:53:00,
2013-01-07 17:02:00,74.0,67.0,30.00,NE,45,8.0,12.0,78,0.00,,,0.77,,2013-01-08 03:02:00,
2013-01-07 17:12:00,74.0,67.0,30.00,NE,45,8.0,12.0,78,0.00,,,0.77,,2013-01-08 03:12:00,
2013-01-07 17:22:00,74.0,67.0,30.01,NNE,21,8.0,12.0,79,0.00,,,0.77,,2013-01-08 03:22:00,
2013-01-07 17:32:00,73.0,66.0,30.01,NE,44,8.0,14.0,79,0.00,,,0.77,,2013-01-08 03:32:00,
2013-01-07 17:42:00,73.0,66.0,30.01,NE,44,8.0,14.0,79,0.00,,,0.77,,2013-01-08 03:42:00,
2013-01-07 17:53:00,73.0,67.0,30.02,WNW,299,7.0,13.0,81,0.00,,,0.77,,2013-01-08 03:53:00,
2013-01-07 18:02:00,73.0,66.0,30.02,NE,47,9.0,14.0,80,0.00,,,0.77,,2013-01-08 04:02:00,
2013-01-07 18:12:00,73.0,66.0,30.02,NE,47,9.0,14.0,80,0.00,,,0.77,,2013-01-08 04:12:00,
2013-01-07 18:22:00,73.0,67.0,30.03,ENE,64,10.0,15.0,81,0.00,,,0.77,,2013-01-08 04:22:00,
2013-01-07 18:32:00,73.0,66.0,30.03,ENE,65,8.0,14.0,80,0.00,,,0.77,,2013-01-08 04:32:00,
2013-01-07 18:42:00,73.0,66.0,30.03,ENE,65,8.0,14.0,80,0.00,,,0.77,,2013-01-08 04:42:00,
2013-01-07 18:52:00,73.0,66.0,30.03,NE,43,8.0,13.0,80,0.00,,,0.77,,2013-01-08 04:52:00,
2013-01-07 19:03:00,73.0,66.0,30.04,NNE,26,8.0,13.0,80,0.00,,,0.77,,2013-01-08 05:03:00,
2013-01-07 19:12:00,73.0,66.0,30.04,NNE,26,8.0,13.0,80,0.00,,,0.77,,2013-01-08 05:12:00,
2013-01-07 19:22:00,73.0,67.0,30.04,ENE,71,8.0,12.0,81,0.00,,,0.76,,2013-01-08 05:22:00,
2013-01-07 19:32:00,73.0,67.0,30.05,NNE,31,4.0,10.0,81,0.00,,,0.76,,2013-01-08 05:32:00,
2013-01-07 19:42:00,73.0,67.0,30.05,NNE,31,4.0,10.0,81,0.00,,,0.76,,2013-01-08 05:42:00,
2013-01-07 19:53:00,73.0,67.0,30.05,North,3,4.0,10.0,81,0.00,,,0.76,,2013-01-08 05:53:00,
2013-01-07 20:02:00,73.0,67.0,30.05,NE,37,8.0,12.0,81,0.00,,,0.76,,2013-01-08 06:02:00,
2013-01-07 20:11:00,73.0,67.0,30.05,NE,37,8.0,12.0,81,0.00,,,0.76,,2013-01-08 06:11:00,
2013-01-07 20:22:00,73.0,66.0,30.05,ENE,61,10.0,13.0,80,0.00,,,0.76,,2013-01-08 06:22:00,
2013-01-07 20:32:00,73.0,66.0,30.06,North,4,10.0,14.0,80,0.00,,,0.76,,2013-01-08 06:32:00,
2013-01-07 20:42:00,73.0,66.0,30.06,North,4,10.0,14.0,80,0.00,,,0.76,,2013-01-08 06:42:00,
2013-01-07 20:52:00,73.0,66.0,30.06,ENE,71,10.0,13.0,80,0.00,,,0.76,,2013-01-08 06:52:00,
2013-01-07 21:02:00,73.0,66.0,30.06,NE,56,10.0,14.0,79,0.00,,,0.76,,2013-01-08 07:02:00,
2013-01-07 21:11:00,73.0,66.0,30.06,NE,56,10.0,14.0,79,0.00,,,0.76,,2013-01-08 07:11:00,
2013-01-07 21:22:00,73.0,66.0,30.06,North,349,6.0,12.0,79,0.00,,,0.76,,2013-01-08 07:22:00,
2013-01-07 21:32:00,73.0,66.0,30.06,NE,56,6.0,10.0,80,0.00,,,0.76,,2013-01-08 07:32:00,
2013-01-07 21:42:00,73.0,66.0,30.06,NE,56,6.0,10.0,80,0.00,,,0.76,,2013-01-08 07:42:00,
2013-01-07 21:52:00,73.0,66.0,30.06,NE,52,6.0,9.0,79,0.00,,,0.76,,2013-01-08 07:52:00,
2013-01-07 22:02:00,73.0,66.0,30.06,WSW,251,3.0,8.0,80,0.00,,,0.76,,2013-01-08 08:02:00,
2013-01-07 22:11:00,73.0,66.0,30.06,WSW,251,3.0,8.0,80,0.00,,,0.76,,2013-01-08 08:11:00,
2013-01-07 22:22:00,70.0,64.0,30.06,ESE,102,1.0,6.0,81,0.00,,,0.74,,2013-01-08 08:22:00,
2013-01-07 22:32:00,69.0,63.0,30.06,WNW,302,2.0,6.0,82,0.00,,,0.74,,2013-01-08 08:32:00,
2013-01-07 22:42:00,69.0,63.0,30.06,WNW,302,2.0,6.0,82,0.00,,,0.74,,2013-01-08 08:42:00,
2013-01-07 22:52:00,68.0,63.0,30.06,WNW,294,2.0,6.0,83,0.00,,,0.74,,2013-01-08 08:52:00,
2013-01-07 23:02:00,68.0,63.0,30.05,WNW,300,3.0,6.0,84,0.00,,,0.74,,2013-01-08 09:02:00,
2013-01-07 23:12:00,68.0,63.0,30.05,WNW,300,3.0,6.0,84,0.00,,,0.74,,2013-01-08 09:12:00,
2013-01-07 23:22:00,67.0,62.0,30.05,West,278,2.0,7.0,84,0.00,,,0.72,,2013-01-08 09:22:00,
2013-01-07 23:32:00,67.0,62.0,30.05,West,278,2.0,5.0,85,0.00,,,0.72,,2013-01-08 09:32:00,
2013-01-07 23:42:00,67.0,62.0,30.05,West,278,2.0,5.0,85,0.00,,,0.72,,2013-01-08 09:42:00,
2013-01-07 23:52:00,67.0,62.0,30.04,West,281,2.0,4.0,85,0.00,,,0.72,,2013-01-08 09:52:00,